621  
SXUS52 KTAE 170118  
OSOTAE  
OSOTAE  
NORTH FLORIDA/SOUTH ALABAMA/SOUTHWEST GEORGIA WEATHER ROUNDUP  
NATIONAL WEATHER SERVICE TALLAHASSEE FLORIDA  
800 PM EST WED JAN 16 2019  
 
NOTE: "FAIR" INDICATES FEW OR NO CLOUDS BELOW 12,000 FEET WITH NO  
SIGNIFICANT WEATHER AND/OR OBSTRUCTIONS TO VISIBILITY.  
 
!FLZ017-115-028-034-025-170200   
..NORTH FLORIDA
 
 
 
CITY SKY/WX TMP DP RH WIND PRES REMARKS  
TALLAHASSEE FAIR 44 38 79 CALM 30.27R  
APALACHICOLA FAIR 46 40 79 CALM 30.28R  
PERRY FAIR 45 41 86 CALM 30.28S  
CROSS CITY FAIR 42 39 91 CALM 30.27R  
JACKSONVILLE FAIR 45 40 82 CALM 30.25R  

 
 
!FLZ112-006-005-002-011-170200   
..FLORIDA PANHANDLE
 
 
 
CITY SKY/WX TMP DP RH WIND PRES REMARKS  
MARIANNA FAIR 47 36 65 CALM 30.26S  
BONIFAY NOT AVBL  
PANAMA CITY NW FAIR 47 43 86 CALM 30.27R  
TYNDALL AFB FAIR 49 42 78 CALM 30.28R  
TYND DRONE APT NOT AVBL  
DE FUNIAK SPR FAIR 45 38 76 CALM 30.28S  
EGLIN AFB FAIR 49 42 77 CALM 30.28R  
DESTIN FAIR 47 41 80 CALM 30.28R  
HURLBURT CLEAR 48 43 83 CALM 30.27R  
CRESTVIEW FAIR 41 38 89 CALM 30.29R  
PENSACOLA FAIR 50 41 71 W3 30.28R  

 
 
!ALZ063-066-170200   
..SOUTH ALABAMA
 
 
 
CITY SKY/WX TMP DP RH WIND PRES REMARKS  
DOTHAN FAIR 46 38 73 CALM 30.30R  
OZARK CAIRNS FAIR 46 37 70 CALM 30.26S  
FT RUCKER HELI FAIR 42 40 92 CALM 30.26S  
RUCKER HELI 3 FAIR 48 38 70 CALM 30.26S  
RUCKER HELI 2 FAIR 43 42 95 CALM 30.26S  
FLORALA APT FAIR 44 38 79 CALM 30.30R  
ANDALUSIA FAIR 47 38 71 CALM 30.27R  
TROY FAIR 43 37 79 CALM 30.27S  
EUFALA FAIR 41 38 89 CALM 30.26R  
MOBILE FAIR 47 41 80 SW3 30.28R  

 
 
!GAZ120>161-170200   
..SOUTHWEST AND SOUTH CENTRAL GEORGIA
 
 
 
CITY SKY/WX TMP DP RH WIND PRES REMARKS  
THOMASVILLE FAIR 43 37 81 CALM 30.29R  
BAINBRIDGE N/A 45 36 70 MISG 30.28S  
MOODY AFB FAIR 44 38 80 CALM 30.26R  
VALDOSTA FAIR 42 36 79 CALM 30.27R  
MOULTRIE FAIR 45 39 81 CALM 30.28R  
BLAKELY FAIR 41 36 81 CALM 30.28S  
ALBANY FAIR 45 36 70 CALM 30.29R  
TIFTON FAIR 44 37 76 CALM 30.26  
FITZGERALD FAIR 43 40 91 CALM 30.29R  
CORDELE FAIR 43 37 80 CALM 30.28R  
AMERICUS FAIR 45 39 81 CALM 30.28S  
HOMERVILLE NOT AVBL  

 
 
!GMZ750-755-770-775-170200   
..COASTAL AND BUOY OBS
 
 
 
STATION/POSITION TIME TEMP WIND PRES VSBY WAVE  
AIR SEA DIR/SP/G HT/PER  
(UTC) (F) (DEG/KT/KT) (MB) (MI) (FT/S)  
KEATON BEACH 0100 50 350/ 2/ 2 1025.3R  
CEDAR KEY 0100 51 340/ 3/ 5 1025.1R  
C TOWER 0100 54 270/ 4/ 5 1025.7R  
APALACHICOLA BUO NOT AVBL  
PANAMA CITY BUOY NOT AVBL  
MOBILE BUOY 0100 20/ 2/ 6 1026.1  
ORANGE BCH AL BU 0100 55 200/ 4/ 6 1025.6  

 
 
 
CLICK HERE TO GO TO PREVIOUS BULLETINS.

The Nexlab FL Page
The Nexlab GA Page
The Nexlab AL Page Main Text Page